Tracking 28790 objects as of 19-Apr-2024
HD Live streaming from Space Station
objects crossing your sky now

GORIZONT 22

Track GORIZONT 22 now!
GORIZONT 22 is classified as:


NORAD ID: 20953
Int'l Code: 1990-102A
Perigee: 35,790.3 km
Apogee: 35,807.3 km
Inclination: 13.5 °
Period: 1,436.4 minutes
Semi major axis: 42169 km
RCS: 3.5481 m2 (large)
Launch date: November 23, 1990
Source: Commonwealth of Independent States (former USSR) (CIS)
Launch site: TYURATAM MISSILE AND SPACE COMPLEX (TTMTR)
Your satellite tracking list
Your tracking list is empty




NASA's NSSDC Master Catalog

Two Line Element Set (TLE):
1 20953U 90102A   24110.06402568 -.00000005  00000-0  00000+0 0  9995
2 20953  13.4580 342.9116 0002021  14.6439 237.0598  1.00253722122483
Source of the keplerian elements: AFSPC